Guantanamo Bay NAS, Cuba

3:15 PM CDT on June 23, 2018 (GMT -0400)
Guantanamo Bay Naval Air Station

Weather History for MUGM - March, 2018

Change the Weather History Date:

Wednesday, March 14, 2018

  Actual Average Record
Temperature  
Mean Temperature 78 °F -  
Max Temperature 87 °F 82 °F 91 °F (2015)
Min Temperature 71 °F 69 °F 66 °F (2006)
Cooling Degree Days 14    
Growing Degree Days 28 (Base 50)    
Moisture  
Dew Point 74 °F    
Average Humidity 85    
Maximum Humidity 100    
Minimum Humidity 72    
Precipitation  
Precipitation 0.00 in - - ()
Sea Level Pressure  
Sea Level Pressure 29.99 in    
Wind  
Wind Speed 8 mph ()    
Max Wind Speed 18 mph    
Max Gust Speed -    
Visibility 6.2 miles    
Events      
Averages and records for this station are not official NWS values.
T = Trace of Precipitation, MM = Missing Value Source: Averaged Metar Reports

Daily Weather History Graph

Daily Weather History Graph

Search for Another Location

Airport or City:

Astronomy

Mar. 14, 2018 Rise Set
Actual Time 7:10 AM CDT 7:10 PM CDT
Civil Twilight 6:48 AM CDT 7:32 PM CDT
Nautical Twilight 6:22 AM CDT 7:57 PM CDT
Astronomical Twilight 5:57 AM CDT 8:23 PM CDT
Moon 5:16 AM CDT (3/14) 4:52 PM CDT (3/14)
Length of Visible Light 12h 44m
Length of Day
12h 00m
Waning Crescent, 8% of the Moon is Illuminated
Mar 14
Waning Crescent
Mar 17
New
Mar 24
First Quarter
Mar 31
Full
Apr 8
Last Quarter

Hourly Weather History & Observations

Time (CDT) Temp. Heat Index Dew Point Humidity Pressure Visibility Wind Dir Wind Speed Gust Speed Precip Events Conditions
12:56 AM 75.9 °F - 75.0 °F 97% 30.00 in 6.2 mi NW 6.9 mph - N/A   Partly Cloudy
1:56 AM 75.0 °F - 73.9 °F 96% 29.99 in 6.2 mi NNW 5.8 mph - N/A   Partly Cloudy
2:56 AM 73.9 °F - 73.0 °F 97% 29.97 in 6.2 mi NNW 4.6 mph - N/A   Partly Cloudy
3:56 AM 73.9 °F - 73.0 °F 97% 29.96 in 6.2 mi NNW 6.9 mph - N/A   Partly Cloudy
4:56 AM 73.0 °F - 73.0 °F 100% 29.96 in 6.2 mi NNW 6.9 mph - N/A   Partly Cloudy
5:56 AM 72.0 °F - 72.0 °F 100% 29.97 in 6.2 mi NNW 5.8 mph - N/A   Partly Cloudy
6:56 AM 71.1 °F - 71.1 °F 100% 29.99 in 6.2 mi North 8.1 mph - N/A   Partly Cloudy
7:56 AM 72.0 °F - 72.0 °F 100% 30.00 in 6.2 mi NNW 4.6 mph - N/A   Partly Cloudy
8:56 AM 75.9 °F - 73.0 °F 91% 30.03 in 6.2 mi NNW 9.2 mph - N/A   Partly Cloudy
9:56 AM 81.0 °F 86.2 °F 73.9 °F 79% 30.03 in 6.2 mi North 5.8 mph - N/A   Partly Cloudy
10:56 AM 84.0 °F 91.2 °F 73.9 °F 72% 30.04 in 6.2 mi SE 5.8 mph - N/A   Partly Cloudy
11:56 AM 84.9 °F 93.3 °F 75.0 °F 72% 30.04 in 6.2 mi SSW 10.4 mph - N/A   Partly Cloudy
12:56 PM 84.9 °F 93.3 °F 75.0 °F 72% 30.01 in 6.2 mi SSW 12.7 mph - N/A   Partly Cloudy
1:56 PM 86.0 °F 96.0 °F 75.9 °F 72% 29.99 in 6.2 mi SSW 12.7 mph - N/A   Partly Cloudy
2:56 PM 86.0 °F 96.0 °F 75.9 °F 72% 29.97 in 6.2 mi SW 15.0 mph - N/A   Partly Cloudy
3:56 PM 84.9 °F 94.1 °F 75.9 °F 74% 29.95 in 6.2 mi SW 18.4 mph - N/A   Scattered Clouds
4:56 PM 84.0 °F 92.6 °F 75.9 °F 76% 29.94 in 6.2 mi SW 16.1 mph - N/A   Scattered Clouds
5:56 PM 82.9 °F 90.8 °F 75.9 °F 79% 29.94 in 6.2 mi SW 16.1 mph - N/A   Partly Cloudy
6:56 PM 81.0 °F 87.3 °F 75.9 °F 85% 29.94 in 6.2 mi SW 15.0 mph - N/A   Scattered Clouds
7:56 PM 81.0 °F 87.3 °F 75.9 °F 85% 29.96 in 6.2 mi SSW 15.0 mph - N/A   Scattered Clouds
8:56 PM 80.1 °F 85.4 °F 75.9 °F 87% 29.99 in 6.2 mi WSW 12.7 mph - N/A   Scattered Clouds
9:56 PM 80.1 °F 85.1 °F 75.0 °F 85% 30.02 in 6.2 mi NW 3.5 mph - N/A   Mostly Cloudy
10:56 PM 80.1 °F 83.8 °F 72.0 °F 76% 30.03 in 6.2 mi NNW 6.9 mph - N/A   Mostly Cloudy
11:56 PM 78.1 °F - 71.1 °F 79% 30.02 in 6.2 mi NNW 10.4 mph - N/A   Scattered Clouds